QPF
0.08 0.10 0.11 0.11 0.12 0.19 0.21 0.14 0.09 0.07 0.06 0.06 0.05 0.05 0.06 0.06 0.06 0.06 0.04 0.03 0.05 0.10 0.12 0.12 0.13 0.10 0.09 0.12 0.14 0.09 0.08 0.07 0.05 0.04 0.03 0.03 0.02 0.02 0.03 0.04 0.05 0.04 0.03
0.14 0.13 0.11 0.12 0.12 0.13 0.20 0.18 0.11 0.08 0.08 0.05 0.03 0.03 0.04 0.04 0.05 0.05 0.05 0.04 0.05 0.06 0.07 0.06 0.10 0.13 0.09 0.06 0.06 0.05 0.05 0.05 0.05 0.04 0.03 0.03 0.03 0.03 0.02 0.03 0.03 0.03 0.03
0.10 0.13 0.12 0.13 0.15 0.13 0.13 0.12 0.10 0.08 0.06 0.05 0.04 0.03 0.04 0.04 0.03 0.04 0.05 0.06 0.07 0.06 0.06 0.05 0.06 0.11 0.14 0.07 0.04 0.03 0.04 0.04 0.04 0.03 0.03 0.03 0.02 0.01 0.02 0.01 0.02 0.03 0.04
0.06 0.08 0.09 0.09 0.11 0.12 0.12 0.11 0.09 0.07 0.04 0.04 0.05 0.04 0.04 0.03 0.03 0.04 0.05 0.05 0.06 0.07 0.06 0.05 0.05 0.05 0.08 0.08 0.05 0.03 0.04 0.04 0.03 0.02 0.02 0.02 0.02 0.02 0.02 0.01 0.01 0.02 0.03
0.07 0.07 0.06 0.09 0.08 0.08 0.09 0.12 0.12 0.08 0.06 0.05 0.05 0.05 0.04 0.03 0.03 0.05 0.06 0.06 0.06 0.06 0.05 0.05 0.05 0.04 0.04 0.05 0.05 0.04 0.04 0.03 0.02 0.02 0.02 0.02 0.02 0.01 0.02 0.01 0.02 0.02 0.02
0.07 0.07 0.07 0.10 0.09 0.09 0.11 0.08 0.11 0.09 0.07 0.06 0.05 0.04 0.04 0.04 0.04 0.05 0.07 0.07 0.06 0.06 0.06 0.05 0.05 0.04 0.04 0.03 0.04 0.04 0.04 0.04 0.04 0.04 0.03 0.03 0.02 0.01 0.02 0.02 0.03 0.03 0.01
0.05 0.07 0.08 0.09 0.12 0.09 0.11 0.10 0.06 0.05 0.05 0.04 0.03 0.03 0.04 0.05 0.05 0.05 0.06 0.07 0.06 0.07 0.08 0.08 0.07 0.05 0.04 0.04 0.04 0.04 0.05 0.06 0.06 0.05 0.04 0.04 0.03 0.03 0.03 0.03 0.03 0.03 0.02
0.05 0.06 0.05 0.05 0.05 0.06 0.06 0.11 0.07 0.04 0.04 0.04 0.03 0.03 0.04 0.05 0.05 0.06 0.06 0.06 0.05 0.06 0.06 0.07 0.07 0.06 0.04 0.04 0.04 0.05 0.05 0.05 0.06 0.06 0.05 0.05 0.04 0.04 0.05 0.05 0.04 0.03 0.03
0.05 0.05 0.04 0.04 0.02 0.06 0.09 0.09 0.08 0.05 0.04 0.04 0.04 0.04 0.04 0.05 0.05 0.05 0.06 0.05 0.04 0.04 0.04 0.04 0.06 0.06 0.04 0.04 0.05 0.05 0.05 0.05 0.05 0.05 0.06 0.05 0.04 0.04 0.04 0.04 0.05 0.05 0.04
0.05 0.06 0.05 0.04 0.03 0.04 0.09 0.16 0.15 0.07 0.06 0.06 0.05 0.03 0.03 0.03 0.03 0.03 0.04 0.05 0.05 0.04 0.02 0.01 0.02 0.05 0.04 0.04 0.06 0.06 0.07 0.07 0.07 0.06 0.07 0.08 0.08 0.06 0.05 0.04 0.05 0.05 0.06
0.03 0.03 0.03 0.03 0.03 0.03 0.04 0.09 0.16 0.11 0.07 0.05 0.04 0.04 0.03 0.04 0.03 0.02 0.03 0.04 0.05 0.04 0.03 0.02 0.02 0.03 0.04 0.04 0.05 0.05 0.04 0.05 0.05 0.05 0.05 0.06 0.06 0.07 0.07 0.06 0.05 0.05 0.06
0.02 0.02 0.02 0.03 0.03 0.03 0.04 0.05 0.09 0.09 0.06 0.03 0.03 0.04 0.04 0.05 0.04 0.03 0.02 0.02 0.02 0.02 0.03 0.02 0.02 0.01 0.02 0.03 0.04 0.04 0.03 0.03 0.03 0.03 0.03 0.04 0.04 0.05 0.06 0.06 0.05 0.05 0.05
0.02 0.03 0.03 0.02 0.02 0.02 0.03 0.03 0.04 0.03 0.02 0.02 0.02 0.02 0.03 0.05 0.04 0.03 0.03 0.03 0.03 0.03 0.03 0.02 0.02 0.02 0.02 0.03 0.04 0.04 0.04 0.04 0.02 0.02 0.02 0.02 0.03 0.03 0.04 0.05 0.04 0.04 0.03
0.03 0.03 0.03 0.02 0.02 0.02 0.02 0.02 0.01 0.01 0.01 0.02 0.03 0.03 0.03 0.04 0.04 0.03 0.03 0.03 0.03 0.02 0.02 0.02 0.02 0.02 0.03 0.03 0.04 0.04 0.05 0.04 0.02 0.01 0.01 0.02 0.02 0.02 0.02 0.03 0.02 0.02 0.02
0.03 0.03 0.03 0.02 0.03 0.03 0.02 0.01 0.01 0.02 0.02 0.02 0.02 0.02 0.03 0.04 0.04 0.04 0.05 0.05 0.04 0.03 0.03 0.02 0.02 0.02 0.02 0.02 0.03 0.03 0.03 0.03 0.02 0.02 0.03 0.03 0.02 0.02 0.02 0.02 0.02 0.01 0.01
0.03 0.02 0.02 0.03 0.04 0.05 0.04 0.02 0.02 0.02 0.01 0.02 0.01 0.02 0.02 0.03 0.04 0.05 0.05 0.05 0.05 0.04 0.04 0.03 0.02 0.02 0.02 0.02 0.03 0.03 0.03 0.05 0.05 0.04 0.04 0.03 0.02 0.02 0.01 0.01 0.01 0.01 0.00
0.03 0.04 0.04 0.04 0.05 0.05 0.05 0.03 0.02 0.02 0.02 0.01 0.01 0.02 0.03 0.03 0.03 0.03 0.04 0.05 0.04 0.03 0.03 0.03 0.02 0.02 0.03 0.04 0.04 0.05 0.05 0.06 0.06 0.05 0.04 0.02 0.01 0.01 0.01 0.01 0.01 0.00 0.00
0.02 0.03 0.04 0.04 0.04 0.03 0.04 0.05 0.02 0.02 0.01 0.01 0.02 0.02 0.03 0.05 0.05 0.04 0.04 0.03 0.03 0.02 0.02 0.02 0.02 0.02 0.03 0.04 0.03 0.03 0.03 0.03 0.04 0.03 0.03 0.02 0.01 0.01 0.01 0.01 0.00 0.00 0.00
0.02 0.03 0.03 0.03 0.03 0.03 0.04 0.02 0.02 0.01 0.02 0.02 0.02 0.03 0.03 0.03 0.03 0.03 0.03 0.02 0.02 0.01 0.01 0.01 0.01 0.01 0.01 0.02 0.02 0.03 0.03 0.03 0.03 0.03 0.03 0.03 0.03 0.03 0.02 0.01 0.01 0.00 0.00
0.02 0.01 0.01 0.02 0.02 0.02 0.02 0.01 0.01 0.01 0.02 0.02 0.02 0.02 0.03 0.03 0.03 0.03 0.02 0.01 0.01 0.01 0.01 0.01 0.01 0.01 0.01 0.02 0.02 0.03 0.03 0.04 0.04 0.03 0.04 0.04 0.03 0.03 0.03 0.02 0.01 0.01 0.01
0.02 0.01 0.01 0.02 0.01 0.01 0.01 0.01 0.01 0.01 0.01 0.01 0.01 0.02 0.03 0.03 0.03 0.02 0.01 0.01 0.01 0.01 0.01 0.01 0.01 0.01 0.01 0.02 0.02 0.02 0.02 0.03 0.05 0.04 0.03 0.03 0.03 0.03 0.03 0.02 0.01 0.01 0.01
0.02 0.02 0.02 0.02 0.01 0.01 0.01 0.01 0.01 0.01 0.01 0.01 0.01 0.01 0.02 0.02 0.01 0.01 0.01 0.01 0.01 0.01 0.01 0.01 0.02 0.01 0.01 0.02 0.02 0.02 0.02 0.02 0.04 0.05 0.04 0.03 0.03 0.03 0.02 0.01 0.01 0.01 0.01
0.03 0.02 0.02 0.02 0.02 0.01 0.01 0.02 0.02 0.01 0.01 0.01 0.01 0.01 0.01 0.01 0.01 0.02 0.01 0.01 0.01 0.01 0.02 0.02 0.02 0.02 0.01 0.01 0.01 0.02 0.03 0.03 0.03 0.05 0.05 0.03 0.03 0.02 0.02 0.01 0.01 0.01 0.01
0.03 0.01 0.01 0.02 0.02 0.02 0.02 0.02 0.02 0.02 0.02 0.01 0.01 0.01 0.01 0.02 0.02 0.02 0.01 0.01 0.01 0.02 0.03 0.03 0.02 0.01 0.01 0.01 0.01 0.02 0.03 0.04 0.03 0.03 0.03 0.02 0.02 0.01 0.01 0.01 0.00 0.00 0.00
0.03 0.01 0.01 0.01 0.01 0.01 0.01 0.01 0.02 0.03 0.02 0.03 0.04 0.04 0.03 0.02 0.01 0.01 0.02 0.01 0.01 0.01 0.01 0.01 0.01 0.01 0.01 0.01 0.01 0.01 0.01 0.03 0.04 0.02 0.01 0.01 0.01 0.01 0.01 0.00 0.00 0.00 0.00
0.03 0.02 0.01 0.01 0.01 0.01 0.01 0.01 0.02 0.03 0.03 0.04 0.05 0.05 0.04 0.03 0.02 0.02 0.03 0.03 0.02 0.01 0.01 0.01 0.00 0.00 0.01 0.01 0.01 0.01 0.01 0.01 0.02 0.02 0.01 0.01 0.01 0.01 0.01 0.01 0.00 0.00 0.01
MSLP
1018.20 1017.98 1017.71 1017.32 1016.82 1016.20 1015.50 1014.77 1014.08 1013.47 1012.98 1012.61 1012.35 1012.18 1012.06 1011.95 1011.82 1011.68 1011.53 1011.38 1011.26 1011.19 1011.19 1011.25 1011.35 1011.48 1011.61 1011.72 1011.78 1011.77 1011.71 1011.60 1011.44 1011.25 1011.04 1010.82 1010.58 1010.35 1010.11 1009.87 1009.64 1009.42 1009.21
1018.64 1018.42 1018.11 1017.69 1017.14 1016.49 1015.77 1015.04 1014.38 1013.82 1013.41 1013.12 1012.94 1012.82 1012.72 1012.61 1012.45 1012.25 1012.03 1011.83 1011.66 1011.57 1011.55 1011.61 1011.73 1011.86 1011.98 1012.06 1012.09 1012.05 1011.95 1011.82 1011.66 1011.49 1011.31 1011.14 1010.95 1010.76 1010.54 1010.29 1010.02 1009.73 1009.43
1018.93 1018.70 1018.39 1017.95 1017.39 1016.72 1016.01 1015.32 1014.71 1014.22 1013.88 1013.67 1013.56 1013.49 1013.42 1013.29 1013.10 1012.86 1012.59 1012.33 1012.12 1012.00 1011.97 1012.02 1012.13 1012.25 1012.35 1012.41 1012.40 1012.34 1012.22 1012.08 1011.93 1011.80 1011.68 1011.56 1011.43 1011.28 1011.08 1010.82 1010.51 1010.15 1009.76
1019.06 1018.84 1018.53 1018.10 1017.55 1016.91 1016.24 1015.59 1015.04 1014.62 1014.35 1014.21 1014.14 1014.11 1014.04 1013.91 1013.70 1013.42 1013.11 1012.81 1012.58 1012.43 1012.38 1012.41 1012.50 1012.61 1012.69 1012.71 1012.68 1012.59 1012.47 1012.34 1012.22 1012.13 1012.07 1012.01 1011.94 1011.82 1011.63 1011.36 1011.01 1010.59 1010.11
1019.08 1018.87 1018.58 1018.18 1017.67 1017.07 1016.44 1015.85 1015.35 1014.98 1014.76 1014.65 1014.62 1014.59 1014.53 1014.39 1014.16 1013.86 1013.53 1013.22 1012.97 1012.80 1012.74 1012.75 1012.82 1012.90 1012.95 1012.95 1012.89 1012.79 1012.67 1012.55 1012.47 1012.43 1012.41 1012.41 1012.37 1012.28 1012.09 1011.80 1011.41 1010.93 1010.38
1019.04 1018.84 1018.58 1018.22 1017.76 1017.21 1016.63 1016.08 1015.62 1015.29 1015.08 1014.98 1014.94 1014.91 1014.84 1014.69 1014.45 1014.15 1013.82 1013.51 1013.26 1013.10 1013.02 1013.02 1013.06 1013.11 1013.12 1013.09 1013.01 1012.90 1012.78 1012.69 1012.63 1012.62 1012.64 1012.67 1012.66 1012.58 1012.39 1012.07 1011.64 1011.11 1010.51
1018.99 1018.81 1018.58 1018.27 1017.86 1017.36 1016.82 1016.31 1015.86 1015.53 1015.31 1015.18 1015.12 1015.06 1014.97 1014.81 1014.57 1014.29 1013.98 1013.69 1013.46 1013.30 1013.22 1013.21 1013.23 1013.24 1013.22 1013.16 1013.05 1012.93 1012.81 1012.72 1012.68 1012.69 1012.73 1012.77 1012.77 1012.68 1012.47 1012.13 1011.67 1011.10 1010.46
1018.95 1018.80 1018.61 1018.34 1017.97 1017.52 1017.02 1016.52 1016.08 1015.72 1015.46 1015.29 1015.18 1015.08 1014.96 1014.79 1014.57 1014.31 1014.03 1013.78 1013.58 1013.45 1013.37 1013.35 1013.34 1013.32 1013.26 1013.17 1013.04 1012.89 1012.76 1012.67 1012.63 1012.64 1012.68 1012.71 1012.70 1012.59 1012.36 1012.00 1011.52 1010.93 1010.28
1018.95 1018.82 1018.67 1018.44 1018.12 1017.70 1017.23 1016.73 1016.27 1015.88 1015.57 1015.35 1015.18 1015.03 1014.88 1014.71 1014.50 1014.28 1014.05 1013.84 1013.68 1013.57 1013.50 1013.47 1013.43 1013.38 1013.29 1013.16 1013.00 1012.83 1012.68 1012.58 1012.53 1012.52 1012.54 1012.55 1012.51 1012.38 1012.13 1011.76 1011.27 1010.67 1010.02
1018.96 1018.86 1018.74 1018.55 1018.27 1017.88 1017.43 1016.94 1016.46 1016.04 1015.68 1015.40 1015.18 1014.99 1014.82 1014.64 1014.46 1014.27 1014.08 1013.92 1013.80 1013.71 1013.65 1013.61 1013.55 1013.46 1013.33 1013.17 1012.98 1012.79 1012.61 1012.49 1012.41 1012.37 1012.36 1012.33 1012.27 1012.11 1011.85 1011.48 1010.99 1010.40 1009.76
1018.97 1018.91 1018.81 1018.65 1018.40 1018.04 1017.60 1017.13 1016.65 1016.20 1015.82 1015.49 1015.23 1015.02 1014.83 1014.66 1014.49 1014.33 1014.19 1014.07 1013.97 1013.90 1013.85 1013.79 1013.70 1013.59 1013.43 1013.23 1013.01 1012.79 1012.59 1012.43 1012.32 1012.25 1012.20 1012.14 1012.04 1011.87 1011.60 1011.23 1010.75 1010.19 1009.57
1018.98 1018.93 1018.85 1018.71 1018.47 1018.14 1017.73 1017.27 1016.81 1016.36 1015.97 1015.64 1015.36 1015.13 1014.94 1014.78 1014.63 1014.50 1014.38 1014.28 1014.21 1014.14 1014.08 1014.01 1013.90 1013.75 1013.57 1013.34 1013.10 1012.85 1012.62 1012.43 1012.28 1012.17 1012.08 1011.99 1011.86 1011.67 1011.40 1011.04 1010.59 1010.07 1009.47
1018.97 1018.92 1018.85 1018.71 1018.48 1018.17 1017.78 1017.36 1016.92 1016.51 1016.14 1015.82 1015.55 1015.33 1015.15 1014.99 1014.86 1014.74 1014.64 1014.55 1014.48 1014.41 1014.33 1014.23 1014.11 1013.93 1013.72 1013.48 1013.21 1012.94 1012.69 1012.47 1012.29 1012.14 1012.01 1011.88 1011.72 1011.52 1011.25 1010.91 1010.49 1009.99 1009.44
1018.94 1018.88 1018.79 1018.64 1018.41 1018.11 1017.76 1017.37 1016.98 1016.61 1016.28 1016.00 1015.76 1015.56 1015.40 1015.26 1015.13 1015.02 1014.92 1014.82 1014.74 1014.65 1014.55 1014.43 1014.27 1014.08 1013.85 1013.59 1013.31 1013.03 1012.75 1012.51 1012.29 1012.11 1011.94 1011.77 1011.59 1011.38 1011.10 1010.77 1010.38 1009.92 1009.40
1018.91 1018.83 1018.70 1018.52 1018.28 1017.98 1017.65 1017.31 1016.97 1016.66 1016.38 1016.15 1015.95 1015.79 1015.64 1015.51 1015.39 1015.27 1015.16 1015.05 1014.93 1014.82 1014.69 1014.54 1014.37 1014.16 1013.91 1013.64 1013.35 1013.06 1012.77 1012.50 1012.26 1012.04 1011.83 1011.63 1011.41 1011.18 1010.90 1010.58 1010.20 1009.77 1009.28
1018.89 1018.76 1018.59 1018.37 1018.11 1017.81 1017.50 1017.19 1016.90 1016.65 1016.43 1016.25 1016.09 1015.96 1015.83 1015.71 1015.58 1015.45 1015.32 1015.18 1015.03 1014.88 1014.73 1014.55 1014.35 1014.13 1013.88 1013.60 1013.31 1013.01 1012.71 1012.43 1012.16 1011.90 1011.65 1011.41 1011.16 1010.90 1010.60 1010.28 1009.91 1009.49 1009.03
1018.88 1018.70 1018.48 1018.22 1017.93 1017.63 1017.33 1017.05 1016.80 1016.59 1016.42 1016.28 1016.17 1016.06 1015.95 1015.82 1015.69 1015.53 1015.37 1015.20 1015.02 1014.83 1014.64 1014.44 1014.23 1013.99 1013.74 1013.46 1013.18 1012.88 1012.58 1012.28 1011.98 1011.69 1011.41 1011.13 1010.83 1010.54 1010.22 1009.87 1009.50 1009.09 1008.65
1018.84 1018.64 1018.39 1018.10 1017.79 1017.47 1017.18 1016.92 1016.70 1016.53 1016.39 1016.28 1016.18 1016.09 1015.98 1015.85 1015.70 1015.52 1015.33 1015.12 1014.91 1014.69 1014.47 1014.25 1014.02 1013.78 1013.53 1013.26 1012.98 1012.69 1012.38 1012.07 1011.76 1011.44 1011.13 1010.80 1010.47 1010.13 1009.78 1009.41 1009.02 1008.61 1008.18
1018.77 1018.56 1018.30 1018.00 1017.69 1017.38 1017.09 1016.84 1016.64 1016.48 1016.36 1016.26 1016.17 1016.08 1015.96 1015.81 1015.64 1015.44 1015.22 1014.98 1014.74 1014.50 1014.26 1014.02 1013.78 1013.54 1013.29 1013.04 1012.77 1012.48 1012.18 1011.87 1011.54 1011.21 1010.86 1010.50 1010.14 1009.76 1009.37 1008.98 1008.57 1008.15 1007.72
1018.64 1018.45 1018.21 1017.93 1017.63 1017.34 1017.07 1016.83 1016.64 1016.49 1016.37 1016.26 1016.16 1016.05 1015.92 1015.76 1015.56 1015.34 1015.09 1014.84 1014.57 1014.31 1014.05 1013.80 1013.56 1013.32 1013.08 1012.83 1012.57 1012.30 1012.01 1011.70 1011.38 1011.03 1010.66 1010.28 1009.89 1009.48 1009.07 1008.64 1008.22 1007.78 1007.35
1018.42 1018.28 1018.09 1017.86 1017.61 1017.35 1017.10 1016.89 1016.70 1016.55 1016.42 1016.30 1016.18 1016.05 1015.89 1015.71 1015.49 1015.25 1014.99 1014.71 1014.43 1014.16 1013.89 1013.63 1013.38 1013.15 1012.91 1012.67 1012.43 1012.17 1011.90 1011.60 1011.27 1010.93 1010.56 1010.17 1009.76 1009.34 1008.91 1008.47 1008.03 1007.59 1007.15
1018.10 1018.04 1017.92 1017.76 1017.57 1017.37 1017.16 1016.97 1016.79 1016.63 1016.49 1016.35 1016.21 1016.05 1015.88 1015.67 1015.44 1015.18 1014.91 1014.62 1014.33 1014.05 1013.77 1013.51 1013.26 1013.02 1012.79 1012.56 1012.32 1012.08 1011.82 1011.54 1011.23 1010.89 1010.53 1010.15 1009.75 1009.33 1008.90 1008.47 1008.03 1007.60 1007.17
1017.70 1017.72 1017.69 1017.61 1017.49 1017.34 1017.18 1017.02 1016.86 1016.70 1016.55 1016.39 1016.23 1016.06 1015.86 1015.64 1015.40 1015.13 1014.85 1014.56 1014.26 1013.96 1013.68 1013.40 1013.15 1012.90 1012.67 1012.44 1012.22 1011.99 1011.74 1011.48 1011.19 1010.88 1010.54 1010.18 1009.80 1009.41 1009.00 1008.60 1008.18 1007.78 1007.37
1017.24 1017.33 1017.38 1017.37 1017.32 1017.24 1017.13 1017.00 1016.85 1016.70 1016.55 1016.38 1016.21 1016.03 1015.82 1015.59 1015.34 1015.07 1014.78 1014.48 1014.17 1013.87 1013.57 1013.28 1013.01 1012.76 1012.52 1012.29 1012.07 1011.85 1011.62 1011.37 1011.11 1010.83 1010.53 1010.20 1009.86 1009.51 1009.15 1008.79 1008.42 1008.06 1007.70
1016.76 1016.89 1016.99 1017.04 1017.05 1017.01 1016.94 1016.85 1016.73 1016.59 1016.44 1016.28 1016.11 1015.92 1015.71 1015.48 1015.23 1014.95 1014.66 1014.35 1014.03 1013.71 1013.39 1013.09 1012.80 1012.53 1012.28 1012.05 1011.82 1011.61 1011.40 1011.18 1010.95 1010.70 1010.44 1010.16 1009.87 1009.58 1009.27 1008.97 1008.67 1008.37 1008.08
1016.28 1016.42 1016.54 1016.62 1016.66 1016.65 1016.61 1016.54 1016.44 1016.33 1016.19 1016.04 1015.88 1015.70 1015.50 1015.28 1015.03 1014.76 1014.46 1014.14 1013.80 1013.46 1013.13 1012.80 1012.49 1012.20 1011.93 1011.69 1011.47 1011.27 1011.07 1010.87 1010.68 1010.47 1010.26 1010.04 1009.81 1009.58 1009.34 1009.11 1008.89 1008.66 1008.44
Thickness
5725 5727 5727 5727 5724 5721 5719 5717 5717 5718 5718 5716 5712 5710 5708 5709 5708 5708 5707 5706 5705 5705 5704 5703 5701 5700 5699 5698 5697 5696 5695 5694 5693 5690 5688 5690 5692 5693 5693 5692 5690 5689 5689
5718 5719 5720 5720 5718 5716 5714 5713 5713 5714 5714 5713 5711 5709 5707 5705 5705 5704 5703 5702 5701 5700 5700 5698 5696 5695 5694 5692 5692 5691 5689 5688 5689 5685 5680 5676 5679 5684 5688 5687 5686 5685 5684
5714 5714 5713 5713 5713 5712 5712 5712 5710 5711 5711 5710 5707 5705 5702 5700 5699 5698 5697 5697 5697 5695 5695 5693 5692 5690 5689 5688 5687 5686 5684 5682 5683 5683 5677 5670 5668 5672 5678 5680 5681 5680 5679
5712 5711 5709 5709 5708 5708 5708 5708 5707 5706 5706 5705 5702 5700 5696 5694 5693 5692 5693 5693 5692 5691 5690 5689 5688 5687 5685 5684 5684 5683 5682 5680 5677 5677 5676 5674 5671 5666 5666 5671 5674 5674 5674
5707 5707 5707 5705 5706 5705 5704 5703 5702 5701 5700 5700 5697 5695 5692 5691 5690 5689 5688 5687 5687 5687 5686 5685 5684 5683 5681 5681 5680 5679 5679 5678 5675 5673 5671 5669 5667 5665 5661 5659 5663 5666 5668
5703 5703 5703 5702 5701 5701 5699 5698 5697 5696 5695 5694 5693 5691 5689 5687 5685 5684 5683 5682 5682 5682 5682 5681 5680 5679 5678 5677 5676 5675 5675 5674 5672 5671 5668 5665 5662 5660 5657 5655 5654 5655 5659
5697 5697 5697 5696 5696 5695 5694 5693 5693 5692 5692 5691 5689 5688 5687 5685 5682 5681 5679 5678 5678 5678 5677 5677 5676 5675 5675 5674 5673 5672 5671 5670 5668 5667 5664 5662 5660 5658 5655 5651 5649 5648 5650
5693 5694 5694 5692 5692 5691 5690 5690 5689 5689 5690 5689 5687 5686 5685 5683 5681 5679 5678 5676 5675 5675 5675 5675 5674 5673 5671 5671 5670 5668 5668 5667 5665 5663 5661 5659 5657 5655 5652 5648 5644 5641 5640
5692 5691 5691 5690 5689 5688 5687 5687 5686 5687 5687 5686 5685 5684 5683 5681 5679 5678 5677 5675 5674 5673 5673 5672 5671 5670 5668 5667 5666 5664 5663 5662 5660 5658 5656 5654 5653 5652 5649 5646 5642 5636 5631
5689 5689 5688 5689 5688 5687 5686 5686 5685 5684 5684 5684 5683 5682 5680 5679 5678 5677 5675 5673 5672 5672 5671 5670 5668 5667 5665 5663 5662 5660 5659 5657 5655 5654 5651 5649 5648 5646 5644 5642 5638 5634 5629
5687 5686 5686 5686 5686 5685 5684 5683 5682 5682 5681 5681 5680 5679 5678 5677 5675 5674 5673 5671 5671 5670 5669 5667 5665 5663 5661 5660 5658 5656 5655 5653 5651 5648 5646 5644 5642 5640 5638 5636 5633 5629 5625
5686 5685 5684 5683 5682 5682 5681 5681 5680 5680 5679 5679 5678 5677 5676 5674 5672 5671 5670 5670 5668 5668 5666 5665 5663 5660 5658 5657 5655 5653 5651 5648 5646 5643 5641 5639 5637 5634 5632 5629 5627 5624 5620
5684 5682 5682 5681 5680 5679 5679 5679 5678 5678 5678 5677 5675 5674 5673 5671 5670 5669 5668 5667 5666 5664 5664 5662 5660 5658 5656 5654 5652 5650 5648 5645 5642 5640 5637 5634 5632 5629 5627 5624 5621 5618 5616
5682 5680 5679 5678 5678 5677 5677 5677 5676 5676 5676 5674 5673 5671 5670 5669 5668 5667 5666 5665 5664 5662 5661 5660 5658 5657 5655 5653 5651 5648 5645 5642 5639 5637 5634 5631 5629 5626 5624 5621 5617 5614 5610
5681 5680 5678 5676 5675 5675 5675 5675 5675 5674 5674 5672 5670 5669 5668 5668 5666 5665 5664 5663 5662 5660 5659 5657 5655 5654 5652 5650 5647 5645 5642 5638 5635 5633 5630 5629 5627 5625 5622 5619 5614 5610 5605
5681 5679 5678 5676 5675 5674 5673 5673 5672 5672 5672 5670 5668 5668 5667 5666 5664 5663 5662 5660 5659 5658 5656 5654 5653 5651 5649 5647 5644 5642 5639 5635 5631 5628 5627 5626 5624 5622 5619 5616 5613 5609 5603
5680 5679 5677 5675 5674 5673 5673 5671 5671 5671 5669 5668 5667 5666 5665 5663 5662 5661 5659 5658 5656 5655 5653 5651 5649 5647 5645 5643 5641 5639 5635 5631 5628 5625 5623 5622 5621 5617 5614 5611 5609 5605 5601
5680 5678 5677 5675 5674 5674 5673 5672 5671 5669 5668 5667 5666 5665 5663 5661 5660 5659 5657 5655 5654 5653 5651 5649 5647 5644 5642 5641 5638 5635 5631 5628 5625 5622 5620 5617 5615 5613 5609 5606 5602 5599 5596
5681 5678 5677 5676 5674 5673 5672 5671 5669 5667 5666 5665 5664 5663 5662 5659 5658 5657 5655 5654 5652 5650 5649 5647 5644 5641 5639 5637 5635 5632 5627 5624 5621 5619 5617 5614 5611 5609 5605 5600 5596 5593 5591
5680 5678 5677 5675 5673 5672 5671 5669 5666 5665 5664 5664 5663 5662 5661 5659 5657 5656 5654 5653 5651 5649 5647 5644 5642 5639 5636 5635 5632 5629 5624 5620 5617 5615 5613 5611 5607 5604 5601 5596 5591 5587 5585
5680 5679 5676 5673 5672 5671 5669 5666 5665 5663 5664 5664 5663 5661 5660 5658 5656 5654 5653 5651 5649 5646 5644 5641 5639 5636 5634 5632 5629 5626 5621 5618 5615 5612 5609 5607 5604 5601 5598 5594 5589 5585 5582
5679 5677 5674 5672 5671 5671 5668 5665 5663 5663 5664 5663 5661 5659 5658 5657 5655 5652 5650 5648 5645 5642 5639 5636 5634 5632 5630 5628 5626 5623 5619 5616 5611 5608 5605 5603 5601 5598 5594 5591 5587 5583 5579
5677 5676 5673 5671 5670 5669 5668 5664 5663 5663 5662 5660 5658 5657 5656 5654 5652 5650 5647 5644 5641 5638 5635 5632 5629 5628 5626 5624 5622 5619 5616 5613 5608 5605 5603 5600 5597 5594 5591 5588 5584 5580 5574
5676 5674 5671 5668 5667 5667 5667 5665 5664 5663 5661 5658 5656 5654 5652 5650 5649 5647 5645 5641 5638 5635 5632 5629 5626 5624 5622 5619 5617 5615 5612 5609 5605 5602 5600 5597 5594 5591 5587 5584 5580 5576 5572
5674 5672 5669 5667 5666 5666 5665 5665 5664 5662 5658 5656 5654 5652 5650 5647 5645 5643 5641 5639 5637 5635 5631 5628 5625 5621 5619 5618 5616 5612 5608 5605 5602 5598 5595 5592 5589 5585 5582 5578 5575 5572 5569
5673 5670 5668 5666 5665 5664 5663 5664 5663 5661 5657 5654 5651 5649 5647 5645 5643 5640 5638 5638 5636 5635 5632 5629 5625 5622 5620 5617 5614 5611 5607 5604 5600 5595 5591 5588 5585 5581 5578 5575 5572 5569 5566